Weather History for Scottsbluff, NE

Change the Weather History Date:

Thursday, June 13, 2013

  Actual Average Record
Temperature  
Mean Temperature 69 °F 66 °F  
Max Temperature 85 °F 81 °F 101 °F (1956)
Min Temperature 53 °F 52 °F 31 °F (1947)
Degree Days  
Heating Degree Days 0 2  
Month to date heating degree days 21 40  
Since 1 June heating degree days 21 40  
Since 1 July heating degree days 6306 6595  
Cooling Degree Days 4 4  
Month to date cooling degree days 46 34  
Year to date cooling degree days 100 57  
Since 1 June cooling degree days 46 34  
Growing Degree Days 18 (Base 50)    
Moisture  
Dew Point 51 °F    
Average Humidity 62    
Maximum Humidity 89    
Minimum Humidity 34    
Precipitation  
Precipitation 0.00 in 0.10 in 0.65 in (2010)
Month to date precipitation 0.29 1.40  
Year to date precipitation 4.93 7.72  
Snow  
Snow 0.00 in 0.00 in - ()
Month to date snowfall 0.0 0.0  
Since 1 July snowfall 43.9 42.1  
Snow Depth 0.00 in    
Sea Level Pressure  
Sea Level Pressure 29.95 in    
Wind  
Wind Speed 14 mph (SE)    
Max Wind Speed 23 mph    
Max Gust Speed 29 mph    
Visibility 10 miles    
Events      
T = Trace of Precipitation, MM = Missing Value Source: NWS Daily Summary

Daily Weather History Graph

Daily Weather History Graph

Search for Another Location

Airport:

Trip Planner

Search our weather history database for the weather conditions in past years. The results will help you decide how hot, cold, wet, or windy it might be!

Date:

Astronomy

Jun. 13, 2013 Rise Set
Actual Time 5:18 AM MDT 8:30 PM MDT
Civil Twilight 4:44 AM MDT 9:04 PM MDT
Nautical Twilight 4:00 AM MDT 9:48 PM MDT
Astronomical Twilight 3:07 AM MDT 10:42 PM MDT
Moon 10:01 AM MDT (6/13) 11:34 PM MDT (6/13)
Length of Visible Light 16h 20m
Length of Day
15h 11m
Waxing Crescent, 22% of the Moon is Illuminated
Jun 13
Waxing Crescent
Jun 16
First Quarter
Jun 23
Full
Jun 29
Last Quarter
Jul 8
New

Hourly Weather History & Observations

Time (MDT) Temp. Heat Index Dew Point Humidity Pressure Visibility Wind Dir Wind Speed Gust Speed Precip Events Conditions
12:53 AM 57.9 °F - 50.0 °F 75% 30.04 in 10.0 mi ESE 6.9 mph - N/A   Clear
1:53 AM 55.0 °F - 50.0 °F 83% 30.06 in 10.0 mi ESE 3.5 mph - N/A   Clear
2:53 AM 54.0 °F - 50.0 °F 86% 30.06 in 10.0 mi East 5.8 mph - N/A   Clear
3:53 AM 54.0 °F - 48.9 °F 83% 30.05 in 10.0 mi ESE 9.2 mph - N/A   Clear
4:53 AM 53.1 °F - 48.9 °F 86% 30.06 in 10.0 mi East 10.4 mph - N/A   Clear
5:53 AM 53.1 °F - 48.0 °F 83% 30.06 in 10.0 mi ESE 9.2 mph - N/A   Clear
6:53 AM 55.0 °F - 48.0 °F 77% 30.07 in 10.0 mi ESE 17.3 mph 24.2 mph N/A   Clear
7:53 AM 55.9 °F - 48.9 °F 77% 30.06 in 10.0 mi SE 17.3 mph - N/A   Clear
8:21 AM 55.4 °F - 48.2 °F 77% 30.15 in 10.0 mi SE 12.7 mph 24.2 mph N/A   Mostly Cloudy
8:53 AM 59.0 °F - 50.0 °F 72% 30.06 in 10.0 mi SSE 15.0 mph 26.5 mph N/A   Mostly Cloudy
9:07 AM 60.8 °F - 50.0 °F 68% 30.14 in 10.0 mi SSE 18.4 mph 24.2 mph N/A   Scattered Clouds
9:51 AM 62.6 °F - 48.2 °F 59% 30.12 in 10.0 mi SE 18.4 mph - N/A   Mostly Cloudy
9:53 AM 63.0 °F - 50.0 °F 63% 30.03 in 10.0 mi SSE 17.3 mph 24.2 mph N/A   Mostly Cloudy
10:53 AM 63.0 °F - 51.1 °F 65% 30.02 in 10.0 mi SSE 16.1 mph - N/A   Overcast
11:53 AM 66.9 °F - 52.0 °F 59% 30.00 in 10.0 mi SSE 17.3 mph - N/A   Scattered Clouds
12:53 PM 72.0 °F - 54.0 °F 53% 29.96 in 10.0 mi SE 10.4 mph - N/A   Clear
1:53 PM 77.0 °F - 54.0 °F 45% 29.92 in 10.0 mi SSE 16.1 mph 21.9 mph N/A   Clear
2:53 PM 80.1 °F 80.0 °F 54.0 °F 40% 29.88 in 10.0 mi SSE 11.5 mph 24.2 mph N/A   Clear
3:53 PM 84.0 °F 82.9 °F 55.0 °F 37% 29.84 in 10.0 mi SSE 13.8 mph 21.9 mph N/A   Clear
4:53 PM 84.9 °F 83.3 °F 54.0 °F 34% 29.81 in 10.0 mi SE 18.4 mph - N/A   Clear
5:53 PM 84.0 °F 82.6 °F 54.0 °F 35% 29.78 in 10.0 mi SSE 17.3 mph 25.3 mph N/A   Clear
6:53 PM 82.9 °F 81.9 °F 54.0 °F 37% 29.78 in 10.0 mi SE 18.4 mph - N/A   Clear
7:18 PM 80.6 °F 80.3 °F 53.6 °F 39% 29.90 in 10.0 mi SE 17.3 mph 23.0 mph N/A   Partly Cloudy
7:53 PM 80.1 °F 80.0 °F 54.0 °F 40% 29.78 in 10.0 mi SE 20.7 mph 28.8 mph N/A   Clear
8:53 PM 75.0 °F - 54.0 °F 48% 29.78 in 10.0 mi ESE 17.3 mph 27.6 mph N/A   Clear
9:53 PM 73.9 °F - 54.0 °F 50% 29.79 in 10.0 mi East 12.7 mph - N/A   Clear
10:53 PM 73.9 °F - 48.0 °F 40% 29.77 in 10.0 mi ESE 19.6 mph - N/A   Clear
11:53 PM 71.1 °F - 48.9 °F 45% 29.75 in 10.0 mi ESE 18.4 mph - N/A   Clear